Location: Chavannes
(47.1090°N, 0.2226°W)
Time: 12:48:00
(UTC+00:00)

Cosmos 1980 Rocket - Pass Details

Date: 16 October 2021
Orbit: 828 x 851 km, 71.0° (Epoch: 02 December)

Event Time Altitude Azimuth Distance (km) Brightness Sun altitude
Rises 18:57:51 0° 210° (SSW) 3,377 5.6 -18.9°
Reaches altitude 10° 19:00:17 10° 212° (SSW) 2,450 4.9 -19.3°
Maximum altitude 19:05:55 75° 298° (WNW) 876 2.3 -20.2°
Drops below altitude 10° 19:11:37 10° 24° (NNE) 2,481 4.5 -21.2°
Sets 19:14:06 0° 27° (NNE) 3,423 5.2 -21.6°
